EST,Max TemperatureF,Mean TemperatureF,Min TemperatureF,Max Dew PointF,MeanDew PointF,Min DewpointF,Max Humidity, Mean Humidity, Min Humidity, Max Sea Level PressureIn, Mean Sea Level PressureIn, Min Sea Level PressureIn, Max VisibilityMiles, Mean VisibilityMiles, Min VisibilityMiles, Max Wind SpeedMPH, Mean Wind SpeedMPH, Max Gust SpeedMPH,PrecipitationIn, CloudCover, Events, WindDirDegrees
2013-12-1,49,39,29,32,29,26,87,73,48,30.34,30.21,30.02,10,10,10,8,5,,0.00,6,,306
2013-12-2,50,40,31,33,29,27,85,68,42,30.01,29.94,29.88,10,10,10,5,2,,0.01,6,,302
2013-12-3,53,44,32,39,36,30,100,86,48,30.01,29.90,29.87,10,8,6,8,4,,0.00,6,,335
2013-12-4,54,42,30,46,40,28,94,84,61,30.12,30.08,30.01,10,10,9,7,2,,0.00,6,,78
2013-12-5,59,54,48,59,53,46,100,99,88,30.10,30.04,29.93,10,5,0,14,3,24,0.02,8,Fog-Rain,154
2013-12-6,62,50,39,63,49,37,100,97,87,30.12,29.99,29.87,10,8,2,21,10,28,0.31,8,Rain,317
2013-12-7,40,34,28,37,33,20,100,88,61,30.52,30.22,30.05,10,10,6,18,11,23,0.05,6,Rain,342
2013-12-8,32,27,22,32,26,16,100,91,60,30.59,30.47,30.31,10,4,0,13,7,,0.05,7,Fog-Rain-Snow,20
2013-12-9,37,34,32,37,35,32,100,99,93,30.30,30.07,29.98,10,5,0,13,7,,0.08,8,Fog-Rain-Snow,293
2013-12-10,33,28,23,33,31,20,100,98,83,30.18,29.96,29.88,10,4,1,14,7,,0.01,6,Snow,287
2013-12-11,33,24,15,20,17,14,93,74,49,30.38,30.28,30.19,10,10,8,10,6,,0.00,1,,229
2013-12-12,27,22,16,18,12,5,86,66,43,30.37,30.29,30.21,10,10,10,17,7,22,0.00,2,Snow,287
2013-12-13,36,26,15,20,13,8,77,58,40,30.34,30.22,30.18,10,10,10,15,7,22,0.00,3,,232
2013-12-14,47,36,25,47,33,20,100,95,73,30.43,30.06,29.66,10,6,1,16,9,25,0.17,8,Rain-Snow,50
2013-12-15,50,40,29,50,35,20,100,90,56,29.89,29.62,29.53,10,8,2,18,9,28,0.10,7,Rain,281
2013-12-16,32,25,18,22,10,6,74,51,34,30.24,30.10,29.88,10,10,10,20,11,28,0.00,2,,276
2013-12-17,35,28,22,34,24,12,100,86,59,30.22,30.03,29.92,10,8,2,10,4,,0.02,7,Rain-Snow,349
2013-12-18,37,29,21,23,19,17,86,71,47,30.20,30.08,29.94,10,10,10,17,9,26,0.00,2,,272
2013-12-19,47,34,22,30,25,18,86,65,43,30.22,30.13,30.06,10,10,10,13,7,,0.00,0,,201
2013-12-20,55,45,35,49,37,29,94,69,39,30.11,30.03,29.99,10,10,10,14,8,,0.00,2,Rain,190
2013-12-21,67,58,50,57,50,46,88,75,56,30.01,29.96,29.91,10,10,10,16,11,22,0.00,3,,193
2013-12-22,72,66,61,64,61,56,95,83,71,29.97,29.90,29.81,10,10,2,29,16,44,0.04,5,Rain,200
2013-12-23,64,53,42,63,53,33,100,93,71,30.14,30.00,29.89,10,9,1,24,8,30,0.44,8,Rain,249
2013-12-24,41,34,27,34,21,14,76,60,46,30.38,30.23,30.12,10,10,9,21,13,26,0.00,6,Snow,310
2013-12-25,29,24,18,18,11,5,71,56,41,30.55,30.46,30.36,10,10,10,18,11,28,0.00,4,Snow,323
2013-12-26,40,30,21,25,20,16,87,74,52,30.40,30.29,30.19,10,10,10,13,2,21,0.00,5,,252
2013-12-27,45,33,21,21,19,16,89,64,33,30.40,30.34,30.29,10,10,10,16,5,,0.00,2,,239
2013-12-28,57,40,23,28,25,18,82,58,32,30.30,30.20,30.09,10,10,10,18,7,22,0.00,0,,206
2013-12-29,51,44,38,52,42,27,100,92,59,30.08,29.66,29.41,10,7,1,18,8,28,0.77,7,Rain,166
2013-12-30,45,34,23,39,29,13,99,73,55,30.18,30.00,29.78,10,10,10,18,9,26,0.00,5,,292
2013-12-31,37,29,21,25,17,10,70,57,47,30.32,30.16,30.08,10,10,9,18,8,26,0.00,5,,278